EW5485 Weather Reports


Display with metric or nautical units.
time (UTC)temp
F
wind
direction
speed
MPH
gust
MPH
rain 1hr
in
rain 24hr
in
rain mn
in
humidity
%
barometer
mb
20260506083048 62 342 5.0 11.0 0.00 0.01 0.01 67 1018.2
20260506081554 62 332 4.0 10.0 0.00 0.01 0.01 68 1018.4
20260506073045 59 346 4.0 7.0 0.01 0.01 0.01 76 1018.7
20260506071542 57 101 0.0 1.0 0.01 0.01 0.01 79 1019.1
20260506061538 60 355 0.0 0.0 0.00 0.00 0.00 70 1019.2
20260506044537 62 318 1.0 4.0 0.00 0.00 0.00 59 1018.9
20260506043032 62 314 1.0 3.0 0.00 0.00 0.00 61 1019.0
20260506041531 63 53 0.0 0.0 0.00 0.00 0.00 58 1019.0
20260506040035 64 60 0.0 0.0 0.00 0.00 0.00 58 1018.9
20260506034532 65 81 0.0 0.0 0.00 0.00 0.00 57 1018.7
20260506033028 66 357 0.0 1.0 0.00 0.00 0.00 56 1018.7
20260506031534 66 6 1.0 3.0 0.00 0.00 0.00 53 1018.7
20260506030028 68 341 3.0 9.0 0.00 0.00 0.00 50 1018.5
20260506024525 69 359 5.0 8.0 0.00 0.00 0.00 46 1018.7
20260506023040 69 330 6.0 10.0 0.00 0.00 0.00 47 1018.5
20260506021533 69 321 6.0 9.0 0.00 0.00 0.00 47 1018.5
20260506020026 70 10 7.0 11.0 0.00 0.00 0.00 47 1018.5
20260506014520 71 299 2.0 7.0 0.00 0.00 0.00 41 1018.4
20260506013024 71 281 3.0 7.0 0.00 0.00 0.00 41 1018.3
20260506011516 70 272 3.0 7.0 0.00 0.00 0.00 45 1018.3
20260506010016 69 339 5.0 8.0 0.00 0.00 0.00 51 1018.3
20260506004515 71 45 0.0 3.0 0.00 0.00 0.00 47 1018.3
20260506003015 72 169 0.0 3.0 0.00 0.00 0.00 41 1018.4
20260506001511 71 149 1.0 2.0 0.00 0.00 0.00 43 1018.5
20260506000009 70 358 1.0 4.0 0.00 0.00 0.00 40 1018.7
20260505234508 70 27 0.0 2.0 0.00 0.00 0.00 43 1018.8
20260505233005 70 302 0.0 3.0 0.00 0.00 0.00 44 1018.8
20260505231503 69 320 0.0 3.0 0.00 0.00 0.00 44 1018.6
20260505230100 68 279 2.0 4.0 0.00 0.00 0.00 45 1018.6
20260505224603 68 288 1.0 5.0 0.00 0.00 0.00 50 1018.6
20260505223057 67 311 0.0 3.0 0.00 0.00 0.00 54 1018.7
20260505221549 65 360 0.0 5.0 0.00 0.00 0.00 58 1018.9
20260505220048 62 34 2.0 8.0 0.00 0.00 0.00 59 1019.0
20260505214554 59 325 1.0 4.0 0.00 0.00 0.00 64 1019.1
20260505213044 60 345 2.0 7.0 0.00 0.00 0.00 57 1019.1
20260505211542 61 332 3.0 11.0 0.00 0.00 0.00 55 1018.9
20260505210040 60 338 5.0 10.0 0.00 0.00 0.00 59 1018.8
20260505204537 59 335 8.0 12.0 0.00 0.00 0.00 59 1018.9
20260505203051 55 4 1.0 4.0 0.00 0.00 0.00 66 1019.1
20260505201536 52 350 3.0 5.0 0.00 0.00 0.00 70 1018.9
20260505200030 51 348 1.0 4.0 0.00 0.00 0.00 70 1019.0
20260505194530 50 340 2.0 5.0 0.00 0.00 0.00 71 1018.9
20260505193033 45 331 1.0 4.0 0.00 0.00 0.00 76 1018.8
20260505191528 41 10 2.0 4.0 0.00 0.00 0.00 79 1018.8
20260505190034 42 351 0.0 2.0 0.00 0.00 0.00 74 1018.9
20260505184530 42 351 0.0 2.0 0.00 0.00 0.00 73 1018.9
20260505183027 42 345 0.0 4.0 0.00 0.00 0.00 72 1019.0
20260505181528 45 292 1.0 4.0 0.00 0.00 0.00 69 1019.1
20260505180023 42 302 1.0 4.0 0.00 0.00 0.00 73 1019.1
20260505174529 46 316 1.0 3.0 0.00 0.00 0.00 67 1019.3
20260505173021 42 346 0.0 1.0 0.00 0.00 0.00 79 1019.4
20260505171520 43 290 0.0 3.0 0.00 0.00 0.00 71 1019.4
20260505170021 50 344 0.0 1.0 0.00 0.00 0.00 60 1019.4
20260505164518 51 307 1.0 4.0 0.00 0.00 0.00 59 1019.5
20260505163021 50 322 0.0 3.0 0.00 0.00 0.00 64 1019.5
20260505161516 46 316 0.0 3.0 0.00 0.00 0.00 69 1019.6
20260505153011 53 324 3.0 10.0 0.00 0.00 0.00 62 1019.7
20260505151507 53 330 7.0 16.0 0.00 0.00 0.00 62 1020.1
20260505124543 30 282 0.0 4.0 0.00 0.00 0.00 98 1021.2
20260505123040 30 7 0.0 0.0 0.00 0.00 0.00 97 1021.4
20260505121538 30 298 0.0 0.0 0.00 0.00 0.00 97 1021.5
20260505120039 29 294 0.0 0.0 0.00 0.00 0.00 97 1021.7
20260505114538 30 307 0.0 0.0 0.00 0.00 0.00 97 1021.7
20260505113030 32 283 0.0 0.0 0.00 0.00 0.00 97 1021.8
20260505111527 32 301 0.0 0.0 0.00 0.00 0.00 97 1022.1
20260505101520 36 114 0.0 0.0 0.00 0.00 0.00 97 1022.6
20260505100020 37 77 0.0 2.0 0.00 0.00 0.00 98 1022.8
20260505094516 37 79 0.0 1.0 0.00 0.00 0.00 98 1023.0
20260505093026 38 96 0.0 5.0 0.00 0.00 0.00 98 1023.1
20260505091516 38 48 1.0 5.0 0.00 0.00 0.00 97 1023.1
20260505090014 38 78 1.0 4.0 0.00 0.00 0.00 97 1023.2
20260505084510 38 41 0.0 6.0 0.00 0.00 0.00 97 1023.6